sat.trackr.live / text

‹ back to catalog

STARLINK-5232

NORAD 55675 · 2023-021AZ

PAYLOAD ACTIVE UNKNOWN

§ Identity

Operator
Country
US
Launch date
2023-02-17
Launch site
AFWTR
Launch vehicle
Mass (kg)
RCS (m²)

Purposes: comms

External: N2YO · Heavens-Above · Gunter

§ Orbital elements

Epoch: 2026-05-24T23:00:21.477024Z

Period
96.11 min
Inclination
69.9990°
Eccentricity
0.0002859
Mean motion
14.98334327 rev/d
Perigee alt
570.1 km
Apogee alt
574.0 km
Semi-major
6,950.2 km
B*
7.2555e-5
RAAN
331.9632°
Arg perigee
268.5534°
Mean anomaly
91.5298°
Rev number
18,071

§ Raw data

STARLINK-52321 55675U 23021AZ  26144.95858191  .00000773  00000+0  72555-4 0  99932 55675  69.9990 331.9632 0002859 268.5534  91.5298 14.98334327180711

JSON: /api/v1/satellites/55675 · /tle

For live sub-satellite position, see the globe view (requires WebGL).

§ Visibility from observer

Set your observer location to see the next 7 days of passes ≥ 10°. The values pass through the URL so the page stays shareable.

No JS? Fill the form by hand. The geolocation button needs JavaScript.